User: anonymous   Login
Location: NJAA Observatory
(40.6819°N, 74.8979°W)
Time: 07:32:30
(UTC-05:00)
Language:

Iridium 4 - Orbit

View from above orbital plane
View from above orbital plane
View from above satellite
View from above satellite

Ground track
Ground track

The orbit data is extracted from the following two-line orbital elements,

1 24796U 97020E   16339.55710201  .00000147  00000-0  44556-4 0  9999
2 24796  86.3974  39.3493 0002199  91.8703  29.7280 14.35124422 25392
Epoch (UTC): 04 December 2016 13:22:13
Eccentricity: 0.0002199
inclination: 86.3974°
perigee height: 773 km
apogee height: 776 km
right ascension of ascending node: 39.3493°
argument of perigee: 91.8703°
revolutions per day: 14.35124422
mean anomaly at epoch: 29.7280°
orbit number at epoch: 2539

The dashed part of the orbit path shows where the satellite is in the earth's shadow,  

DLR